KC7O Weather Reports


Display with metric or nautical units.
time (UTC)temp
F
wind
direction
speed
MPH
gust
MPH
rain 1hr
in
rain 24hr
in
rain mn
in
humidity
%
barometer
mb
20260508141905 58 44 1.0 2.0 0.00 0.00 0.00 91 1014.8
20260508141409 58 42 0.0 1.0 0.00 0.00 0.00 91 1014.8
20260508140913 58 36 0.0 2.0 0.00 0.00 0.00 91 1014.8
20260508140354 58 72 0.0 3.0 0.00 0.00 0.00 92 1014.7
20260508135901 58 98 0.0 3.0 0.00 0.00 0.00 92 1014.7
20260508135405 58 153 0.0 1.0 0.00 0.00 0.00 92 1014.7
20260508134908 58 153 0.0 1.0 0.00 0.00 0.00 92 1014.7
20260508134352 58 153 0.0 0.0 0.00 0.00 0.00 92 1014.7
20260508133857 57 153 0.0 0.0 0.00 0.00 0.00 92 1014.7
20260508133404 58 153 0.0 1.0 0.00 0.00 0.00 92 1014.6
20260508132909 58 153 0.0 1.0 0.00 0.00 0.00 92 1014.5
20260508132354 57 143 0.0 1.0 0.00 0.00 0.00 92 1014.5
20260508131852 58 142 0.0 1.0 0.00 0.00 0.00 92 1014.5
20260508131418 58 224 1.0 1.0 0.00 0.00 0.00 92 1014.3
20260508130904 58 127 0.0 0.0 0.00 0.00 0.00 92 1014.3
20260508130402 58 127 0.0 0.0 0.00 0.00 0.00 92 1014.3
20260508125906 58 127 0.0 1.0 0.00 0.00 0.00 92 1014.3
20260508125412 58 127 0.0 1.0 0.00 0.00 0.00 92 1014.2
20260508124856 57 350 0.0 0.0 0.00 0.00 0.00 92 1014.2
20260508124422 58 350 0.0 0.0 0.00 0.00 0.00 92 1014.2
20260508123905 57 350 0.0 1.0 0.00 0.00 0.00 92 1014.2
20260508123410 57 350 0.0 1.0 0.00 0.00 0.00 92 1014.0
20260508122902 57 341 0.0 1.0 0.00 0.00 0.00 92 1014.0
20260508122423 58 333 0.0 0.0 0.00 0.00 0.00 92 1013.9
20260508121906 58 333 0.0 0.0 0.00 0.00 0.00 92 1014.0
20260508121412 58 297 0.0 1.0 0.00 0.00 0.00 92 1014.0
20260508120854 58 297 0.0 1.0 0.00 0.00 0.00 92 1014.0
20260508120400 58 297 0.0 1.0 0.00 0.00 0.00 92 1013.9
20260508115926 57 297 0.0 1.0 0.00 0.00 0.00 92 1013.9
20260508115351 58 297 0.0 1.0 0.00 0.00 0.00 92 1013.9
20260508114859 58 8 0.0 0.0 0.00 0.00 0.00 92 1013.9
20260508114404 58 8 0.0 0.0 0.00 0.00 0.00 92 1013.9
20260508113929 58 8 0.0 1.0 0.00 0.00 0.00 92 1013.9
20260508113355 57 8 0.0 1.0 0.00 0.00 0.00 92 1013.9
20260508112859 57 8 0.0 1.0 0.00 0.00 0.00 92 1013.9
20260508112405 58 8 0.0 1.0 0.00 0.00 0.00 92 1013.8
20260508111850 57 8 0.0 1.0 0.00 0.00 0.00 92 1013.8
20260508111355 57 8 0.0 2.0 0.00 0.00 0.00 92 1013.8
20260508110902 58 72 0.0 2.0 0.00 0.00 0.00 92 1013.7
20260508110350 58 98 0.0 2.0 0.00 0.00 0.00 92 1013.8
20260508105854 58 99 0.0 2.0 0.00 0.00 0.00 92 1013.8
20260508105401 58 32 0.0 0.0 0.00 0.00 0.00 92 1013.8
20260508104910 58 156 0.0 0.0 0.00 0.00 0.00 92 1013.7
20260508104354 58 156 0.0 0.0 0.00 0.00 0.00 92 1013.7
20260508103857 58 156 0.0 0.0 0.00 0.00 0.00 92 1013.7
20260508103403 58 147 0.0 0.0 0.00 0.00 0.00 92 1013.7
20260508102850 58 147 0.0 0.0 0.00 0.00 0.00 92 1013.8
20260508102355 58 147 0.0 0.0 0.00 0.00 0.00 92 1013.8
20260508101859 58 147 0.0 0.0 0.00 0.00 0.00 92 1013.9
20260508101404 58 147 0.0 0.0 0.00 0.00 0.00 92 1013.9
20260508100906 58 147 0.0 0.0 0.00 0.00 0.00 92 1013.9
20260508100352 58 147 0.0 0.0 0.00 0.00 0.00 92 1013.9
20260508095917 58 147 0.0 0.0 0.00 0.00 0.00 92 1013.8
20260508095401 58 147 0.0 0.0 0.00 0.00 0.00 92 1013.8
20260508094910 58 147 0.0 0.0 0.00 0.00 0.00 92 1013.8
20260508094354 58 147 0.0 0.0 0.00 0.00 0.00 92 1013.8
20260508093919 58 147 0.0 0.0 0.00 0.00 0.00 92 1013.8
20260508093403 58 147 0.0 0.0 0.00 0.00 0.00 92 1013.8
20260508092908 58 147 0.0 0.0 0.00 0.00 0.00 92 1013.9
20260508092355 58 145 0.0 0.0 0.00 0.00 0.00 92 1013.9
20260508091901 58 145 0.0 1.0 0.00 0.00 0.00 92 1013.9
20260508091406 58 144 0.0 1.0 0.00 0.00 0.00 92 1014.0
20260508090851 57 144 0.0 0.0 0.00 0.00 0.00 92 1014.0
20260508090356 57 144 0.0 0.0 0.00 0.00 0.00 92 1014.0
20260508085859 57 144 0.0 0.0 0.00 0.00 0.00 92 1014.0
20260508085405 57 144 0.0 0.0 0.00 0.00 0.00 92 1014.0
20260508084405 57 144 0.0 0.0 0.00 0.00 0.00 92 1014.1
20260508083909 57 144 0.0 0.0 0.00 0.00 0.00 91 1014.2
20260508083357 57 144 0.0 0.0 0.00 0.00 0.00 91 1014.3
20260508082901 57 144 0.0 0.0 0.00 0.00 0.00 91 1014.3
20260508082407 57 144 0.0 0.0 0.00 0.00 0.00 90 1014.3
20260508081912 57 144 0.0 0.0 0.00 0.00 0.00 90 1014.4
20260508081354 57 144 0.0 0.0 0.00 0.00 0.00 90 1014.4
20260508080858 57 144 0.0 0.0 0.00 0.00 0.00 90 1014.4
20260508080405 57 144 0.0 0.0 0.00 0.00 0.00 89 1014.6
20260508075911 57 144 0.0 0.0 0.00 0.00 0.00 89 1014.5
20260508075417 57 144 0.0 0.0 0.00 0.00 0.00 89 1014.6
20260508073900 58 144 0.0 0.0 0.00 0.00 0.00 88 1014.6
20260508073423 58 144 0.0 0.0 0.00 0.00 0.00 88 1014.6
20260508072852 58 144 0.0 0.0 0.00 0.00 0.00 88 1014.5
20260508072357 58 144 0.0 0.0 0.00 0.00 0.00 88 1014.5
20260508071900 58 144 0.0 0.0 0.00 0.00 0.00 88 1014.6
20260508071404 58 144 0.0 0.0 0.00 0.00 0.00 88 1014.6
20260508070850 58 144 0.0 0.0 0.00 0.00 0.00 87 1014.5
20260508070357 58 144 0.0 0.0 0.00 0.00 0.00 87 1014.5
20260508065901 58 144 0.0 0.0 0.00 0.00 0.00 87 1014.5
20260508065407 58 144 0.0 0.0 0.00 0.00 0.00 86 1014.5
20260508064853 59 144 0.0 0.0 0.00 0.00 0.00 86 1014.5
20260508064400 59 144 0.0 0.0 0.00 0.00 0.00 86 1014.4
20260508063904 59 144 0.0 0.0 0.00 0.00 0.00 86 1014.4
20260508063414 59 144 0.0 0.0 0.00 0.00 0.00 86 1014.4
20260508062919 59 144 0.0 0.0 0.00 0.00 0.00 85 1014.3
20260508062402 59 144 0.0 0.0 0.00 0.00 0.00 85 1014.3
20260508061908 60 144 0.0 0.0 0.00 0.00 0.00 84 1014.3
20260508061412 60 144 0.0 0.0 0.00 0.00 0.00 84 1014.3
20260508060856 60 144 0.0 0.0 0.00 0.00 0.00 84 1014.2
20260508060359 60 144 0.0 0.0 0.00 0.00 0.00 84 1014.3
20260508055925 60 144 0.0 0.0 0.00 0.00 0.00 83 1014.3
20260508055350 60 144 0.0 0.0 0.00 0.00 0.00 83 1014.3
20260508054915 60 144 0.0 0.0 0.00 0.00 0.00 82 1014.4
20260508054417 61 144 0.0 0.0 0.00 0.00 0.00 82 1014.4
20260508053901 61 144 0.0 0.0 0.00 0.00 0.00 82 1014.3
20260508053407 61 144 0.0 0.0 0.00 0.00 0.00 81 1014.4
20260508052852 61 144 0.0 0.0 0.00 0.00 0.00 81 1014.4
20260508052354 62 144 0.0 1.0 0.00 0.00 0.00 80 1014.3
20260508051858 62 144 0.0 1.0 0.00 0.00 0.00 80 1014.3
20260508051403 62 144 0.0 0.0 0.00 0.00 0.00 80 1014.4
20260508050853 62 144 0.0 0.0 0.00 0.00 0.00 79 1014.4
20260508050358 62 144 0.0 0.0 0.00 0.00 0.00 79 1014.3
20260508045903 63 144 0.0 0.0 0.00 0.00 0.00 78 1014.3
20260508045409 63 144 0.0 0.0 0.00 0.00 0.00 78 1014.3
20260508044854 63 144 0.0 0.0 0.00 0.00 0.00 77 1014.3
20260508044419 63 144 0.0 0.0 0.00 0.00 0.00 77 1014.2
20260508043904 63 144 0.0 0.0 0.00 0.00 0.00 77 1014.1
20260508043409 63 146 0.0 0.0 0.00 0.00 0.00 76 1014.1
20260508042853 64 150 0.0 0.0 0.00 0.00 0.00 75 1014.0
20260508042358 64 150 0.0 0.0 0.00 0.00 0.00 75 1013.9
20260508041902 64 150 0.0 0.0 0.00 0.00 0.00 74 1013.9
20260508041407 64 150 0.0 0.0 0.00 0.00 0.00 74 1013.8
20260508040855 64 150 0.0 0.0 0.00 0.00 0.00 73 1013.8
20260508040400 65 150 0.0 0.0 0.00 0.00 0.00 73 1013.7
20260508035903 65 266 0.0 0.0 0.00 0.00 0.00 72 1013.5
20260508035349 65 266 0.0 0.0 0.00 0.00 0.00 71 1013.5
20260508034855 65 265 0.0 0.0 0.00 0.00 0.00 71 1013.4
20260508034414 65 265 0.0 0.0 0.00 0.00 0.00 70 1013.4
20260508033907 66 266 0.0 0.0 0.00 0.00 0.00 70 1013.3
20260508033356 66 266 0.0 0.0 0.00 0.00 0.00 70 1013.2
20260508032900 66 266 0.0 0.0 0.00 0.00 0.00 70 1013.1
20260508032403 66 266 0.0 0.0 0.00 0.00 0.00 70 1013.1
20260508031909 67 266 0.0 0.0 0.00 0.00 0.00 69 1013.0
20260508031355 67 266 0.0 1.0 0.00 0.00 0.00 69 1013.0
20260508030901 67 265 0.0 1.0 0.00 0.00 0.00 69 1013.0
20260508030350 67 266 0.0 1.0 0.00 0.00 0.00 69 1012.9
20260508025916 68 271 0.0 1.0 0.00 0.00 0.00 69 1012.8
20260508025400 68 153 0.0 1.0 0.00 0.00 0.00 69 1012.7
20260508024905 68 248 0.0 3.0 0.00 0.00 0.00 68 1012.6
20260508023901 69 158 0.0 3.0 0.00 0.00 0.00 67 1012.5
20260508023406 69 221 0.0 3.0 0.00 0.00 0.00 67 1012.4
20260508022910 70 168 1.0 3.0 0.00 0.00 0.00 66 1012.4
20260508022355 70 242 1.0 3.0 0.00 0.00 0.00 66 1012.3
20260508021858 70 223 0.0 3.0 0.00 0.00 0.00 66 1012.3
20260508021430 71 246 0.0 3.0 0.00 0.00 0.00 65 1012.2
20260508020856 71 150 1.0 3.0 0.00 0.00 0.00 65 1012.2
20260508020400 72 255 0.0 3.0 0.00 0.00 0.00 64 1012.2
20260508015906 72 233 1.0 4.0 0.00 0.00 0.00 63 1012.1
20260508015350 72 217 1.0 4.0 0.00 0.00 0.00 63 1011.9
20260508014858 73 175 1.0 4.0 0.00 0.00 0.00 62 1011.9
20260508013856 73 155 2.0 5.0 0.00 0.00 0.00 61 1012.0
20260508012857 74 200 2.0 5.0 0.00 0.00 0.00 60 1012.0
20260508012401 75 261 2.0 5.0 0.00 0.00 0.00 59 1012.0
20260508011926 75 265 3.0 6.0 0.00 0.00 0.00 59 1012.0
20260508011409 76 239 1.0 6.0 0.00 0.00 0.00 58 1012.0
20260508010901 76 240 2.0 4.0 0.00 0.00 0.00 58 1011.9
20260508010426 77 145 2.0 4.0 0.00 0.00 0.00 57 1011.9
20260508005852 77 236 1.0 5.0 0.00 0.00 0.00 57 1011.9
20260508005407 77 165 1.0 5.0 0.00 0.00 0.00 58 1011.9
20260508004853 77 253 2.0 4.0 0.00 0.00 0.00 57 1011.9
20260508004357 77 234 1.0 5.0 0.00 0.00 0.00 57 1011.8
20260508003903 77 194 1.0 5.0 0.00 0.00 0.00 57 1011.8
20260508003428 77 199 1.0 5.0 0.00 0.00 0.00 56 1011.8
20260508002851 77 158 2.0 4.0 0.00 0.00 0.00 57 1011.8
20260508002357 77 149 1.0 5.0 0.00 0.00 0.00 57 1011.8
20260508001901 77 138 2.0 6.0 0.00 0.00 0.00 57 1011.9
20260508001401 77 235 3.0 6.0 0.00 0.00 0.00 57 1011.9
20260508000851 77 210 2.0 5.0 0.00 0.00 0.00 57 1011.9
20260508000357 76 215 2.0 5.0 0.00 0.00 0.00 58 1011.9
20260507235901 77 264 3.0 5.0 0.00 0.00 0.00 57 1011.9
20260507235409 77 248 1.0 5.0 0.00 0.00 0.00 58 1011.9
20260507234854 77 256 1.0 6.0 0.00 0.00 0.00 58 1011.8
20260507234359 77 218 1.0 6.0 0.00 0.00 0.00 58 1011.8
20260507233920 77 280 2.0 5.0 0.00 0.00 0.00 58 1011.9
20260507233422 77 256 2.0 7.0 0.00 0.00 0.00 58 1011.9
20260507232859 77 132 3.0 7.0 0.00 0.00 0.00 58 1012.0
20260507231409 77 220 4.0 7.0 0.00 0.00 0.00 57 1012.1
20260507230914 78 191 3.0 7.0 0.00 0.00 0.00 57 1012.0
20260507230357 78 191 3.0 6.0 0.00 0.00 0.00 57 1012.1
20260507225424 78 252 3.0 7.0 0.00 0.00 0.00 56 1012.1
20260507224908 78 172 3.0 8.0 0.00 0.00 0.00 56 1012.1
20260507224410 79 143 2.0 8.0 0.00 0.00 0.00 56 1012.1
20260507223853 79 147 3.0 6.0 0.00 0.00 0.00 56 1012.1
20260507223355 79 200 2.0 6.0 0.00 0.00 0.00 55 1012.2
20260507222900 80 236 2.0 7.0 0.00 0.00 0.00 55 1012.2
20260507222404 80 233 3.0 8.0 0.00 0.00 0.00 54 1012.2
20260507221854 80 275 3.0 8.0 0.00 0.00 0.00 54 1012.2
20260507221358 80 270 2.0 6.0 0.00 0.00 0.00 54 1012.2
20260507220901 81 191 3.0 5.0 0.00 0.00 0.00 54 1012.2
20260507220406 81 163 2.0 5.0 0.00 0.00 0.00 54 1012.3
20260507215851 80 214 1.0 7.0 0.00 0.00 0.00 55 1012.3
20260507215356 80 153 2.0 7.0 0.00 0.00 0.00 54 1012.3
20260507214903 80 155 2.0 10.0 0.00 0.00 0.00 54 1012.4
20260507213852 81 164 3.0 7.0 0.00 0.00 0.00 53 1012.6
20260507213359 81 155 3.0 8.0 0.00 0.00 0.00 53 1012.6
20260507212923 82 207 3.0 8.0 0.00 0.00 0.00 53 1012.7
20260507212352 82 247 2.0 7.0 0.00 0.00 0.00 52 1012.7
20260507211856 82 197 3.0 7.0 0.00 0.00 0.00 52 1012.7
20260507211401 82 224 3.0 7.0 0.00 0.00 0.00 50 1012.7
20260507210907 81 170 1.0 7.0 0.00 0.00 0.00 51 1012.7
20260507210408 82 138 3.0 6.0 0.00 0.00 0.00 51 1012.8
20260507205854 81 257 1.0 5.0 0.00 0.00 0.00 52 1012.8
20260507205356 81 215 1.0 6.0 0.00 0.00 0.00 52 1012.8
20260507204859 80 169 2.0 6.0 0.00 0.00 0.00 52 1012.9
20260507204404 81 287 1.0 6.0 0.00 0.00 0.00 52 1013.0
20260507203907 81 171 3.0 6.0 0.00 0.00 0.00 52 1013.0
20260507203406 80 172 2.0 6.0 0.00 0.00 0.00 52 1013.0
20260507202850 81 269 2.0 6.0 0.00 0.00 0.00 51 1013.1
20260507201858 81 147 2.0 5.0 0.00 0.00 0.00 52 1013.1
20260507201402 80 170 2.0 5.0 0.00 0.00 0.00 52 1013.2
20260507200905 80 155 3.0 5.0 0.00 0.00 0.00 54 1013.3
20260507200428 80 253 1.0 5.0 0.00 0.00 0.00 53 1013.4
20260507195851 79 238 2.0 5.0 0.00 0.00 0.00 54 1013.5
20260507195416 79 151 2.0 5.0 0.00 0.00 0.00 55 1013.6
20260507194402 78 251 1.0 6.0 0.00 0.00 0.00 57 1013.5
20260507193850 78 167 3.0 6.0 0.00 0.00 0.00 56 1013.7
20260507193355 78 237 3.0 6.0 0.00 0.00 0.00 55 1013.7
20260507192904 77 179 3.0 6.0 0.00 0.00 0.00 56 1013.8
20260507192408 77 143 2.0 6.0 0.00 0.00 0.00 57 1013.9
20260507191854 77 148 2.0 6.0 0.00 0.00 0.00 58 1013.9
20260507191419 77 173 3.0 6.0 0.00 0.00 0.00 56 1014.0
20260507190906 77 162 3.0 6.0 0.00 0.00 0.00 56 1014.0
20260507190351 77 143 2.0 4.0 0.00 0.00 0.00 57 1014.0
20260507185855 77 124 2.0 5.0 0.00 0.00 0.00 58 1014.1
20260507185411 76 125 2.0 5.0 0.00 0.00 0.00 57 1014.0
20260507184908 76 203 1.0 4.0 0.00 0.00 0.00 58 1014.1
20260507184426 75 199 2.0 4.0 0.00 0.00 0.00 60 1014.3
20260507183921 75 136 1.0 4.0 0.00 0.00 0.00 59 1014.3
20260507183400 75 162 1.0 4.0 0.00 0.00 0.00 59 1014.5
20260507182919 75 248 2.0 4.0 0.00 0.00 0.00 60 1014.5
20260507182354 74 181 1.0 4.0 0.00 0.00 0.00 60 1014.5
20260507181854 74 157 2.0 4.0 0.00 0.00 0.00 60 1014.5
20260507181355 74 154 2.0 4.0 0.00 0.00 0.00 61 1014.5
20260507180850 74 131 2.0 4.0 0.00 0.00 0.00 60 1014.4
20260507180405 74 260 2.0 5.0 0.00 0.00 0.00 62 1014.5
20260507175906 73 125 2.0 5.0 0.00 0.00 0.00 62 1014.5
20260507175359 73 257 1.0 4.0 0.00 0.00 0.00 62 1014.5
20260507174855 73 152 1.0 4.0 0.00 0.00 0.00 63 1014.5
20260507174352 72 175 1.0 3.0 0.00 0.00 0.00 63 1014.6
20260507173853 72 284 0.0 4.0 0.00 0.00 0.00 65 1014.6
20260507173349 72 225 1.0 4.0 0.00 0.00 0.00 63 1014.7
20260507172852 71 245 1.0 4.0 0.00 0.00 0.00 64 1014.6
20260507172357 72 147 1.0 4.0 0.00 0.00 0.00 62 1014.7
20260507171921 72 259 1.0 4.0 0.00 0.00 0.00 64 1014.6
20260507171405 71 163 2.0 4.0 0.00 0.00 0.00 64 1014.6
20260507170909 70 159 0.0 2.0 0.00 0.00 0.00 66 1014.7
20260507170351 70 197 1.0 5.0 0.00 0.00 0.00 66 1014.6
20260507165855 69 160 2.0 5.0 0.00 0.00 0.00 66 1014.6
20260507165404 70 196 2.0 4.0 0.00 0.00 0.00 66 1014.6
20260507164908 69 181 1.0 4.0 0.00 0.00 0.00 67 1014.6
20260507164353 68 162 2.0 4.0 0.00 0.00 0.00 67 1014.6
20260507163858 68 145 0.0 3.0 0.00 0.00 0.00 68 1014.7
20260507163400 68 165 1.0 3.0 0.00 0.00 0.00 69 1014.8
20260507162924 68 220 1.0 3.0 0.00 0.00 0.00 70 1014.8
20260507162405 68 195 1.0 3.0 0.00 0.00 0.00 70 1014.8
20260507161852 67 172 1.0 3.0 0.00 0.00 0.00 70 1014.8
20260507161353 66 138 1.0 4.0 0.00 0.00 0.00 71 1014.8
20260507160856 67 154 2.0 4.0 0.00 0.00 0.00 70 1014.9
20260507160400 66 125 0.0 3.0 0.00 0.00 0.00 72 1014.9
20260507155902 66 169 1.0 3.0 0.00 0.00 0.00 72 1014.9
20260507155406 65 130 1.0 4.0 0.00 0.00 0.00 73 1014.9
20260507154930 65 134 1.0 4.0 0.00 0.00 0.00 72 1014.9
20260507154356 65 150 1.0 3.0 0.00 0.00 0.00 72 1014.9
20260507153904 65 188 1.0 3.0 0.00 0.00 0.00 72 1015.0
20260507153409 66 152 1.0 3.0 0.00 0.00 0.00 71 1015.0
20260507152854 66 162 1.0 2.0 0.00 0.00 0.00 72 1014.9
20260507152355 65 158 1.0 2.0 0.00 0.00 0.00 72 1015.0
20260507151901 65 220 0.0 1.0 0.00 0.00 0.00 73 1015.0
20260507151426 65 124 0.0 1.0 0.00 0.00 0.00 72 1015.0
20260507150911 65 155 0.0 1.0 0.00 0.00 0.00 73 1014.9
20260507150415 65 143 0.0 1.0 0.00 0.00 0.00 72 1014.9
20260507145858 66 147 0.0 0.0 0.00 0.00 0.00 71 1014.9
20260507145404 66 153 0.0 0.0 0.00 0.00 0.00 70 1014.9
20260507144909 66 151 0.0 0.0 0.00 0.00 0.00 71 1014.9
20260507144354 66 200 0.0 0.0 0.00 0.00 0.00 72 1014.9
20260507143402 64 229 0.0 0.0 0.00 0.00 0.00 74 1014.9
20260507142905 64 229 0.0 0.0 0.00 0.00 0.00 74 1014.8
20260507142411 65 186 0.0 0.0 0.00 0.00 0.00 74 1014.8